Location: *
(44.1392°N, 4.8079°E)
Time: 06:55:07
(UTC+00:00)

USA 308 - Pass Details

Date: 21 June 2021
Orbit: 566 x 576 km, 54.0° (Epoch: 13 July)

Event Time Altitude Azimuth Distance (km) Brightness Sun altitude
Exits shadow 00:53:07 55° 158° (SSE) 686 2.9 -20.5°
Maximum altitude 00:53:25 56° 138° (SE) 675 3.0 -20.5°
Drops below altitude 10° 00:57:34 10° 60° (ENE) 1,864 6.2 -20.3°
Sets 00:59:50 0° 57° (ENE) 2,764 7.2 -20.1°
